Change the Weather History Date:

Wednesday, May 22, 2013

  Actual Average Record
Temperature  
Mean Temperature 77 °F -  
Max Temperature 88 °F 69 °F 88 °F (2013)
Min Temperature 66 °F 49 °F 33 °F (1935)
Cooling Degree Days 12    
Growing Degree Days 27 (Base 50)    
Moisture  
Dew Point 61 °F    
Average Humidity 61    
Maximum Humidity 84    
Minimum Humidity 35    
Precipitation  
Precipitation 0.00 in - - ()
Sea Level Pressure  
Sea Level Pressure 29.74 in    
Wind  
Wind Speed 12 mph (SW)    
Max Wind Speed 22 mph    
Max Gust Speed 34 mph    
Visibility 10 miles    
Events      
Averages and records for this station are not official NWS values.
T = Trace of Precipitation, MM = Missing Value Source: NWS Daily Summary

Daily Weather History Graph

Daily Weather History Graph

Search for Another Location

Airport or City:

Trip Planner

Search our weather history database for the weather conditions in past years. The results will help you decide how hot, cold, wet, or windy it might be!

Date:

Astronomy

May. 22, 2013 Rise Set
Actual Time 5:48 AM EDT 8:39 PM EDT
Civil Twilight 5:15 AM EDT 9:12 PM EDT
Nautical Twilight 4:33 AM EDT 9:54 PM EDT
Astronomical Twilight 3:45 AM EDT 10:43 PM EDT
Moon 5:56 PM EDT (5/22) 3:55 AM EDT (5/22)
Length of Visible Light 15h 56m
Length of Day
14h 50m
Waxing Gibbous, 91% of the Moon is Illuminated
May 22
Waxing Gibbous
May 25
Full
May 31
Last Quarter
Jun 8
New
Jun 16
First Quarter

Hourly Weather History & Observations

Time (EDT) Temp. Heat Index Dew Point Humidity Pressure Visibility Wind Dir Wind Speed Gust Speed Precip Events Conditions
12:53 AM 72.0 °F - 60.1 °F 66% 29.78 in 10.0 mi SSW 10.4 mph 21.9 mph N/A   Clear
1:53 AM 71.1 °F - 60.1 °F 68% 29.77 in 10.0 mi SSW 13.8 mph 21.9 mph N/A   Clear
2:53 AM 72.0 °F - 61.0 °F 68% 29.77 in 10.0 mi SSW 13.8 mph 24.2 mph N/A   Mostly Cloudy
3:53 AM 71.1 °F - 61.0 °F 70% 29.76 in 10.0 mi SSW 9.2 mph 20.7 mph N/A   Clear
4:53 AM 72.0 °F - 62.1 °F 71% 29.76 in 10.0 mi SSW 9.2 mph - N/A   Clear
5:53 AM 72.0 °F - 62.1 °F 71% 29.77 in 10.0 mi SSW 10.4 mph 19.6 mph N/A   Scattered Clouds
6:53 AM 72.0 °F - 63.0 °F 73% 29.78 in 10.0 mi SSW 10.4 mph 23.0 mph N/A   Mostly Cloudy
7:53 AM 72.0 °F - 63.0 °F 73% 29.80 in 10.0 mi SSW 18.4 mph 24.2 mph N/A   Clear
8:53 AM 73.0 °F - 64.0 °F 73% 29.81 in 10.0 mi SSW 13.8 mph 24.2 mph N/A   Clear
9:53 AM 77.0 °F - 64.0 °F 64% 29.80 in 10.0 mi SSW 16.1 mph 25.3 mph N/A   Clear
10:53 AM 80.1 °F 81.5 °F 63.0 °F 56% 29.79 in 10.0 mi SSW 13.8 mph 23.0 mph N/A   Clear
11:53 AM 82.0 °F 82.4 °F 60.1 °F 47% 29.78 in 10.0 mi WSW 13.8 mph 20.7 mph N/A   Partly Cloudy
12:53 PM 81.0 °F 82.2 °F 63.0 °F 54% 29.78 in 10.0 mi West 11.5 mph 19.6 mph N/A   Partly Cloudy
1:53 PM 81.0 °F 82.2 °F 63.0 °F 54% 29.75 in 10.0 mi WNW 16.1 mph 19.6 mph N/A   Clear
2:53 PM 80.1 °F 81.5 °F 63.0 °F 56% 29.73 in 10.0 mi WNW 10.4 mph - N/A   Scattered Clouds
3:53 PM 80.1 °F 81.5 °F 63.0 °F 56% 29.70 in 10.0 mi WNW 9.2 mph 16.1 mph N/A   Scattered Clouds
4:53 PM 88.0 °F 86.9 °F 57.9 °F 36% 29.66 in 10.0 mi SSW 20.7 mph 34.5 mph N/A   Partly Cloudy
5:02 PM 87.8 °F 86.5 °F 57.2 °F 35% 29.67 in 10.0 mi SSW 19.6 mph 28.8 mph N/A   Clear
5:53 PM 86.0 °F 85.0 °F 57.9 °F 38% 29.65 in 10.0 mi SSW 21.9 mph 29.9 mph N/A   Scattered Clouds
6:53 PM 75.9 °F - 57.9 °F 54% 29.68 in 10.0 mi WSW 11.5 mph 23.0 mph N/A   Mostly Cloudy
7:53 PM 73.9 °F - 57.9 °F 57% 29.70 in 10.0 mi WSW 8.1 mph - N/A   Partly Cloudy
8:53 PM 73.0 °F - 57.9 °F 59% 29.70 in 10.0 mi West 3.5 mph - N/A   Mostly Cloudy
9:53 PM 66.9 °F - 62.1 °F 84% 29.70 in 10.0 mi Calm Calm - N/A   Clear
10:53 PM 70.0 °F - 57.9 °F 65% 29.73 in 10.0 mi SW 8.1 mph - N/A   Partly Cloudy
11:53 PM 68.0 °F - 59.0 °F 73% 29.73 in 10.0 mi South 5.8 mph - N/A   Mostly Cloudy